Location: Unspecified
(0.0000°N, 0.0000°E)
Time: 06:32:18
(UTC+00:00)

Vanguard 2 Rocket - Pass Details

Date: 22 December 2018
Orbit: 554 x 3326 km, 32.9° (Epoch: 15 June)

Event Time Altitude Azimuth Distance (km) Brightness Sun altitude
Rises 13:14:10 0° 284° (WNW) 4,011 10.4 60.2°
Reaches altitude 10° 13:16:35 10° 278° (W) 3,330 10.1 59.9°
Maximum altitude 13:24:57 45° 207° (SSW) 2,415 11.0 58.6°
Drops below altitude 10° 13:39:17 10° 139° (SE) 5,554 11.1 56.1°
Sets 13:44:46 0° 134° (SE) 6,909 11.4 55.2°
